Volver al catálogo

IRIDIUM 100

ActivoComunicacionesPO
NORAD 42956·PAYLOAD·🇺🇸 United States

Lanzado Oct 9, 2017 desde Vandenberg Space Force Base

Loading…

Próximos Pases (próximas 24 horas)

TLE

ActualizadoSource: CelesTrak SupGP

Época: Sep 14, 2026, 21:55 UTC

1 42956C 17061B   26257.91354167 -.00001894  00000+0 -67734-3 0  2579
2 42956  86.4026 347.6926 0002173  96.5511  40.1913 14.34219193    17

Sigue IRIDIUM 100 en tiempo real con AllMySat

Download on the App Store